This is the latest recevied weather packets stored in our database for station/object AI5BL. If no packets are shown the sender has not sent any weather packets the latest 10 day(s).
| Time | Temp. | Humidity | Pressure | Rain* | Wind** | Luminosity | Snow |
|---|---|---|---|---|---|---|---|
| 1788458707 | 35° C | 53% | 1017.5 hPa | 0 mm | - | 404 W/m² | - |
| 1788458400 | 34.44° C | 54% | 1017.7 hPa | 0 mm | - | 1001 W/m² | - |
| 1788458100 | 34.44° C | 54% | 1017.5 hPa | 0 mm | - | 251 W/m² | - |
| 1788457799 | 33.89° C | 54% | 1017.6 hPa | 0 mm | - | 224 W/m² | - |
| 1788457494 | 33.89° C | 57% | 1017.8 hPa | 0 mm | - | 168 W/m² | - |
| 1788457194 | 35° C | 53% | 1017.6 hPa | 0 mm | - | 174 W/m² | - |
| 1788456889 | 34.44° C | 53% | 1018 hPa | 0 mm | - | 865 W/m² | - |
| 1788456585 | 33.89° C | 58% | 1018.1 hPa | 0 mm | - | 751 W/m² | - |
| 1788456280 | 33.33° C | 57% | 1017.8 hPa | 0 mm | - | 130 W/m² | - |
| 1788455975 | 33.33° C | 56% | 1017.9 hPa | 0 mm | - | 120 W/m² | - |
| 1788455670 | 33.89° C | 56% | 1018.1 hPa | 0 mm | - | 116 W/m² | - |
| 1788455370 | 33.89° C | 54% | 1018.1 hPa | 0 mm | - | 148 W/m² | - |
| 1788455065 | 34.44° C | 53% | 1018 hPa | 0 mm | - | 185 W/m² | - |
| 1788454764 | 36.11° C | 50% | 1018.1 hPa | 0 mm | - | 771 W/m² | - |
| 1788454459 | 36.11° C | 50% | 1018.2 hPa | 0 mm | - | 336 W/m² | - |
| 1788454158 | 34.44° C | 54% | 1018.5 hPa | 0 mm | - | 832 W/m² | - |
| 1788453854 | 35.56° C | 52% | 1018.3 hPa | 0 mm | - | 168 W/m² | - |
| 1788453554 | 35° C | 52% | 1018.5 hPa | 0 mm | - | 779 W/m² | - |
| 1788453250 | 33.89° C | 58% | 1018.5 hPa | 0 mm | - | 780 W/m² | - |
| 1788452946 | 35° C | 56% | 1018.6 hPa | 0 mm | - | 133 W/m² | - |
| 1788452642 | 35° C | 54% | 1018.6 hPa | 0 mm | - | 753 W/m² | - |
| 1788452337 | 35° C | 53% | 1018.7 hPa | 0 mm | - | 445 W/m² | - |
| 1788452032 | 35° C | 53% | 1018.5 hPa | 0 mm | - | 729 W/m² | - |
| 1788451728 | 34.44° C | 62% | 1018.5 hPa | 0 mm | - | 702 W/m² | - |
| 1788451427 | 33.89° C | 56% | 1018.6 hPa | 0 mm | - | 698 W/m² | - |
* Rain latest hour (hover to see other rain measurements)
** Current wind speed in m/s (hover to see current wind gust speed)